Вернуться в каталог

USA 120

АктивенВоенныеLEO
NORAD 23907·PAYLOAD·🇺🇸 United States

Запущен May 12, 1996 с Vandenberg Space Force Base

Loading…

Ближайшие Пролёты (ближайшие 24 часа)

TLE

СвежийSource: Space-Track

Эпоха: Sep 14, 2026, 11:14 UTC

1 23907U 96029B   26257.46860622  .00000606  00000-0  11521-3 0  9998
2 23907  63.3194 318.9225 0853553  51.2423 316.1785 13.46662601115671

Отслеживайте USA 120 в реальном времени с AllMySat

Download on the App Store